When you browse on this site, cookies collect data to enhance your experience and personalize the content and advertising you see.
Visit our Privacy Policy to learn more. By continuing to use the site, you agree to this use of cookies and data.
  • In Switzerland
  • List of Countries
  • For 7 days
  • Water Temperature
  • Weather Map
  • Weather Widgets
  • user-avatar
    Login

    Hourly Weather Pokigrov

    Today, 10 December, Tuesday

    Time Temperature Precipitation Wind Pressure Humidity
    00:00 +25°C° 0.1 mm 2 mps 751 mmHg 92%
    01:00 +25°C° 0.1 mm 1 mps 750 mmHg 93%
    02:00 +25°C° 0 mm 1 mps 750 mmHg 94%
    03:00 +25°C° 0.4 mm 1 mps 750 mmHg 95%
    04:00 +25°C° 0.4 mm 1 mps 750 mmHg 96%
    05:00 +24°C° 0.4 mm 1 mps 750 mmHg 97%
    06:00 +25°C° 0.3 mm 1 mps 751 mmHg 93%
    07:00 +26°C° 0.3 mm 1 mps 752 mmHg 89%
    08:00 +28°C° 0 mm 1 mps 752 mmHg 85%
    09:00 +29°C° 0.4 mm 1 mps 752 mmHg 79%
    10:00 +30°C° 0.4 mm 2 mps 752 mmHg 72%
    11:00 +32°C° 0.4 mm 2 mps 751 mmHg 65%
    12:00 +31°C° 0.6 mm 2 mps 750 mmHg 67%
    13:00 +31°C° 0.6 mm 2 mps 750 mmHg 69%
    14:00 +31°C° 0.6 mm 3 mps 749 mmHg 70%
    15:00 +30°C° 1.1 mm 2 mps 749 mmHg 77%
    16:00 +28°C° 1.1 mm 2 mps 749 mmHg 85%
    17:00 +27°C° 1.1 mm 2 mps 749 mmHg 92%
    18:00 +27°C° 0.6 mm 2 mps 749 mmHg 93%
    19:00 +26°C° 0.6 mm 2 mps 750 mmHg 94%
    20:00 +26°C° 0.6 mm 2 mps 751 mmHg 95%
    21:00 +25°C° 0.3 mm 2 mps 751 mmHg 95%
    22:00 +25°C° 0.3 mm 2 mps 751 mmHg 95%
    23:00 +25°C° 0.3 mm 1 mps 751 mmHg 95%

    Tomorrow, 11 December, Wednesday

    Time Temperature Precipitation Wind Pressure Humidity
    00:00 +25°C° 0.1 mm 1 mps 751 mmHg 96%
    01:00 +25°C° 0.1 mm 1 mps 750 mmHg 96%
    02:00 +25°C° 0.1 mm 1 mps 750 mmHg 96%
    03:00 +25°C° 0 mm 1 mps 750 mmHg 96%
    04:00 +25°C° 0 mm 1 mps 750 mmHg 96%
    05:00 +25°C° 0 mm 1 mps 750 mmHg 96%
    06:00 +25°C° 0.1 mm 1 mps 751 mmHg 94%
    07:00 +26°C° 0.1 mm 1 mps 751 mmHg 92%
    08:00 +27°C° 0.1 mm 1 mps 752 mmHg 90%
    09:00 +28°C° 0.2 mm 1 mps 751 mmHg 82%
    10:00 +30°C° 0.2 mm 2 mps 751 mmHg 73%
    11:00 +31°C° 0.2 mm 2 mps 751 mmHg 65%
    12:00 +31°C° 0.7 mm 2 mps 750 mmHg 71%
    13:00 +30°C° 0.7 mm 2 mps 749 mmHg 78%
    14:00 +29°C° 0.7 mm 2 mps 749 mmHg 85%
    15:00 +29°C° 0.9 mm 2 mps 749 mmHg 87%
    16:00 +28°C° 0.9 mm 2 mps 749 mmHg 90%
    17:00 +27°C° 0.9 mm 2 mps 749 mmHg 93%
    18:00 +26°C° 0.2 mm 2 mps 749 mmHg 94%
    19:00 +26°C° 0.2 mm 2 mps 750 mmHg 95%
    20:00 +25°C° 0.2 mm 2 mps 750 mmHg 96%
    21:00 +25°C° 0.1 mm 2 mps 750 mmHg 96%
    22:00 +25°C° 0.1 mm 2 mps 750 mmHg 95%
    23:00 +25°C° 0.1 mm 2 mps 750 mmHg 95%

    Day after tomorrow, 12 December, Thursday

    Time Temperature Precipitation Wind Pressure Humidity
    00:00 +25°C° 0 mm 1 mps 750 mmHg 96%
    01:00 +25°C° 0 mm 1 mps 749 mmHg 96%
    02:00 +24°C° 0 mm 1 mps 749 mmHg 96%
    03:00 +24°C° 0 mm 1 mps 749 mmHg 96%
    04:00 +24°C° 0 mm 1 mps 749 mmHg 96%
    05:00 +24°C° 0 mm 1 mps 749 mmHg 96%
    06:00 +25°C° 0 mm 1 mps 750 mmHg 93%
    07:00 +26°C° 0 mm 2 mps 750 mmHg 89%
    08:00 +27°C° 0 mm 2 mps 751 mmHg 86%
    09:00 +28°C° 0.1 mm 2 mps 751 mmHg 79%
    10:00 +30°C° 0.1 mm 2 mps 751 mmHg 71%
    11:00 +31°C° 0.1 mm 2 mps 751 mmHg 63%
    12:00 +31°C° 0.2 mm 2 mps 750 mmHg 64%
    13:00 +31°C° 0.2 mm 2 mps 749 mmHg 64%
    14:00 +31°C° 0.2 mm 2 mps 748 mmHg 65%
    15:00 +30°C° 0.8 mm 2 mps 748 mmHg 74%
    16:00 +28°C° 0.8 mm 2 mps 748 mmHg 84%
    17:00 +27°C° 0.8 mm 2 mps 748 mmHg 93%
    18:00 +26°C° 0.4 mm 2 mps 748 mmHg 94%
    19:00 +26°C° 0.4 mm 2 mps 749 mmHg 95%
    20:00 +25°C° 0.4 mm 1 mps 749 mmHg 96%
    21:00 +25°C° 0.1 mm 1 mps 750 mmHg 96%
    22:00 +25°C° 0.1 mm 1 mps 750 mmHg 96%
    23:00 +25°C° 0.1 mm 1 mps 750 mmHg 96%

    13 December, Friday

    Time Temperature Precipitation Wind Pressure Humidity
    00:00 +25°C° 0 mm 1 mps 750 mmHg 96%
    01:00 +25°C° 0 mm 1 mps 749 mmHg 96%
    02:00 +24°C° 0 mm 1 mps 749 mmHg 97%
    03:00 +24°C° 0 mm 1 mps 749 mmHg 97%
    04:00 +24°C° 0 mm 1 mps 749 mmHg 97%
    05:00 +24°C° 0 mm 1 mps 749 mmHg 97%
    06:00 +25°C° 0 mm 1 mps 750 mmHg 94%
    07:00 +26°C° 0 mm 1 mps 750 mmHg 91%
    08:00 +27°C° 0 mm 1 mps 750 mmHg 88%
    09:00 +28°C° 0 mm 2 mps 750 mmHg 80%
    10:00 +30°C° 0 mm 2 mps 750 mmHg 72%
    11:00 +31°C° 0 mm 2 mps 750 mmHg 64%
    12:00 +32°C° 0.2 mm 2 mps 749 mmHg 64%
    13:00 +32°C° 0.2 mm 1 mps 748 mmHg 65%
    14:00 +32°C° 0.2 mm 1 mps 747 mmHg 65%
    15:00 +31°C° 0.3 mm 1 mps 748 mmHg 71%
    16:00 +30°C° 0.3 mm 1 mps 748 mmHg 77%
    17:00 +29°C° 0.3 mm 1 mps 748 mmHg 82%
    18:00 +28°C° 0.9 mm 1 mps 749 mmHg 86%
    19:00 +27°C° 0.9 mm 1 mps 749 mmHg 91%
    20:00 +26°C° 0.9 mm 2 mps 750 mmHg 95%
    21:00 +26°C° 0.1 mm 1 mps 750 mmHg 95%
    22:00 +26°C° 0.1 mm 1 mps 750 mmHg 95%
    23:00 +25°C° 0.1 mm 1 mps 750 mmHg 95%

    14 December, Saturday

    Time Temperature Precipitation Wind Pressure Humidity
    00:00 +25°C° 0.2 mm 1 mps 750 mmHg 96%
    01:00 +25°C° 0.2 mm 1 mps 749 mmHg 96%
    02:00 +25°C° 0.2 mm 1 mps 749 mmHg 97%
    03:00 +25°C° 0.1 mm 1 mps 749 mmHg 97%
    04:00 +25°C° 0.1 mm 1 mps 749 mmHg 97%
    05:00 +25°C° 0.1 mm 1 mps 749 mmHg 97%
    06:00 +25°C° 0.1 mm 1 mps 750 mmHg 94%
    07:00 +26°C° 0.1 mm 1 mps 751 mmHg 91%
    08:00 +27°C° 0.1 mm 2 mps 751 mmHg 89%
    09:00 +28°C° 0.5 mm 1 mps 751 mmHg 85%
    10:00 +29°C° 0.5 mm 1 mps 751 mmHg 82%
    11:00 +30°C° 0.5 mm 1 mps 751 mmHg 79%
    12:00 +30°C° 1 mm 1 mps 750 mmHg 79%
    13:00 +31°C° 1 mm 1 mps 749 mmHg 79%
    14:00 +31°C° 1 mm 1 mps 748 mmHg 79%
    15:00 +29°C° 2.1 mm 2 mps 748 mmHg 84%
    16:00 +28°C° 2.1 mm 2 mps 748 mmHg 89%
    17:00 +27°C° 2.1 mm 2 mps 749 mmHg 93%
    18:00 +26°C° 1.1 mm 3 mps 749 mmHg 94%
    19:00 +26°C° 1.1 mm 3 mps 750 mmHg 96%
    20:00 +25°C° 1.1 mm 3 mps 751 mmHg 97%
    21:00 +25°C° 1.5 mm 2 mps 751 mmHg 97%
    22:00 +25°C° 1.5 mm 2 mps 751 mmHg 97%
    23:00 +25°C° 1.5 mm 1 mps 751 mmHg 97%

    15 December, Sunday

    Time Temperature Precipitation Wind Pressure Humidity
    00:00 +25°C° 0.3 mm 1 mps 751 mmHg 97%
    01:00 +25°C° 0.3 mm 1 mps 750 mmHg 97%
    02:00 +25°C° 0.3 mm 1 mps 750 mmHg 97%
    03:00 +25°C° 0.1 mm 1 mps 750 mmHg 97%
    04:00 +25°C° 0.1 mm 1 mps 750 mmHg 97%
    05:00 +25°C° 0.1 mm 1 mps 750 mmHg 97%
    06:00 +25°C° 0 mm 1 mps 751 mmHg 96%
    07:00 +26°C° 0 mm 1 mps 751 mmHg 95%
    08:00 +24°C° 0 mm 0 mps 752 mmHg 95%
    09:00 +28°C° 0 mm 1 mps 752 mmHg 82%
    10:00 +30°C° 0 mm 1 mps 752 mmHg 70%
    11:00 +32°C° 0 mm 2 mps 752 mmHg 58%
    12:00 +32°C° 0.3 mm 2 mps 751 mmHg 61%
    13:00 +32°C° 0.3 mm 2 mps 750 mmHg 64%
    14:00 +31°C° 0.3 mm 3 mps 749 mmHg 68%
    15:00 +30°C° 1.7 mm 3 mps 749 mmHg 77%
    16:00 +28°C° 1.7 mm 3 mps 749 mmHg 86%
    17:00 +27°C° 1.7 mm 3 mps 749 mmHg 94%
    18:00 +26°C° 1 mm 2 mps 750 mmHg 95%
    19:00 +26°C° 1 mm 2 mps 750 mmHg 96%
    20:00 +26°C° 1 mm 2 mps 751 mmHg 96%
    21:00 +25°C° 0.7 mm 1 mps 751 mmHg 96%
    22:00 +25°C° 0.7 mm 1 mps 751 mmHg 96%
    23:00 +25°C° 0.7 mm 1 mps 751 mmHg 96%
    Show more